Orbital Elements at Epoch 2459000.5 (2020-May-31.0) TDB
Reference: JPL 16 (heliocentric ecliptic J2000)
Element | Value | Uncertainty (1-sigma) | Units |
e | .2014471604771905 | 7.2796e-08 | |
a | 2.576621443642988 | 1.9085e-08 | au |
q | 2.057568370196468 | 1.9416e-07 | au |
i | 14.43127534128218 | 8.4604e-06 | deg |
node | 93.72708040522906 | 2.511e-05 | deg |
peri | 246.7904989485094 | 3.1749e-05 | deg |
M | 31.81853029163529 | 2.139e-05 | deg |
tp | 2458866.978265018969 (2020-Jan-18.47826502) | 8.8939e-05 | TDB |
period | 1510.686513569349 4.14 | 1.6785e-05 4.595e-08 | d yr |
n | .2383022531586755 | 2.6477e-09 | deg/d |
Q | 3.095674517089507 | 2.293e-08 | au |
|
| | Orbit Determination Parameters
Additional Information
|